Weather History for Charlevoix, MI

Change the Weather History Date:

Monday, July 22, 2013

  Actual Average Record
Temperature  
Mean Temperature 70 °F -  
Max Temperature 81 °F 74 °F 89 °F (2001)
Min Temperature 59 °F 62 °F 51 °F (2006)
Cooling Degree Days 5    
Growing Degree Days 20 (Base 50)    
Moisture  
Dew Point 63 °F    
Average Humidity 75    
Maximum Humidity 98    
Minimum Humidity 56    
Precipitation  
Precipitation 0.00 in - - ()
Sea Level Pressure  
Sea Level Pressure 29.83 in    
Wind  
Wind Speed 7 mph (SSW)    
Max Wind Speed 14 mph    
Max Gust Speed 18 mph    
Visibility 10 miles    
Events      
Averages and records for this station are not official NWS values.
T = Trace of Precipitation, MM = Missing Value Source: NWS Daily Summary

Daily Weather History Graph

Daily Weather History Graph

Search for Another Location

Airport:

Trip Planner

Search our weather history database for the weather conditions in past years. The results will help you decide how hot, cold, wet, or windy it might be!

Date:

Astronomy

Jul. 22, 2013 Rise Set
Actual Time 6:14 AM EDT 9:19 PM EDT
Civil Twilight 5:39 AM EDT 9:54 PM EDT
Nautical Twilight 4:54 AM EDT 10:40 PM EDT
Astronomical Twilight 3:58 AM EDT 11:34 PM EDT
Moon 9:00 PM EDT (7/22) 6:13 AM EDT (7/22)
Length of Visible Light 16h 15m
Length of Day
15h 04m
Full, 100% of the Moon is Illuminated
Jul 22
Full
Jul 22
Full
Jul 29
Last Quarter
Aug 6
New
Aug 14
First Quarter

Hourly Weather History & Observations

Time (EDT) Temp. Heat Index Dew Point Humidity Pressure Visibility Wind Dir Wind Speed Gust Speed Precip Events Conditions
12:14 AM 68.0 °F - 59.2 °F 73% 29.97 in 10.0 mi SE 4.6 mph - N/A   Overcast
12:34 AM 67.1 °F - 59.2 °F 76% 29.97 in 10.0 mi SE 4.6 mph - N/A   Overcast
12:54 AM 67.1 °F - 59.0 °F 75% 29.97 in 10.0 mi ESE 5.8 mph - N/A   Overcast
1:15 AM 66.9 °F - 59.0 °F 76% 29.96 in 10.0 mi SE 4.6 mph - N/A   Overcast
1:34 AM 66.4 °F - 58.8 °F 77% 29.96 in 10.0 mi SSE 5.8 mph - N/A   Overcast
1:54 AM 65.5 °F - 59.0 °F 80% 29.96 in 10.0 mi SSE 6.9 mph - N/A   Overcast
2:14 AM 64.9 °F - 58.5 °F 79% 29.95 in 10.0 mi SSE 8.1 mph - N/A   Mostly Cloudy
2:34 AM 64.0 °F - 58.5 °F 82% 29.95 in 10.0 mi SSE 8.1 mph - N/A   Scattered Clouds
2:54 AM 63.5 °F - 58.1 °F 83% 29.95 in 10.0 mi SSE 9.2 mph - N/A   Scattered Clouds
3:14 AM 63.3 °F - 57.9 °F 83% 29.94 in 10.0 mi SE 6.9 mph - N/A   Mostly Cloudy
3:34 AM 62.8 °F - 57.7 °F 84% 29.94 in 10.0 mi SE 6.9 mph - N/A   Mostly Cloudy
3:54 AM 62.6 °F - 57.6 °F 84% 29.93 in 10.0 mi SE 8.1 mph - N/A   Scattered Clouds
4:14 AM 61.9 °F - 57.6 °F 86% 29.92 in 10.0 mi SE 6.9 mph - N/A   Clear
4:34 AM 61.5 °F - 57.9 °F 88% 29.92 in 10.0 mi SE 8.1 mph - N/A   Clear
4:54 AM 61.2 °F - 58.1 °F 90% 29.92 in 10.0 mi SE 5.8 mph - N/A   Clear
5:14 AM 60.8 °F - 58.3 °F 91% 29.92 in 10.0 mi SE 6.9 mph - N/A   Clear
5:34 AM 60.6 °F - 58.6 °F 93% 29.92 in 10.0 mi SE 3.5 mph - N/A   Clear
5:54 AM 60.3 °F - 59.0 °F 96% 29.91 in 10.0 mi SE 4.6 mph - N/A   Clear
6:14 AM 60.1 °F - 59.0 °F 96% 29.91 in 10.0 mi SSE 3.5 mph - N/A   Clear
6:34 AM 59.5 °F - 59.0 °F 98% 29.91 in 10.0 mi Calm Calm - N/A   Clear
6:54 AM 60.4 °F - 59.5 °F 97% 29.90 in 10.0 mi SE 4.6 mph - N/A   Clear
7:14 AM 61.9 °F - 60.4 °F 95% 29.90 in 10.0 mi SSE 4.6 mph - N/A   Clear
7:34 AM 63.1 °F - 61.0 °F 93% 29.90 in 10.0 mi SSE 4.6 mph - N/A   Clear
7:54 AM 64.6 °F - 61.3 °F 89% 29.90 in 10.0 mi SSE 6.9 mph - N/A   Clear
8:14 AM 66.2 °F - 61.9 °F 86% 29.90 in 10.0 mi South 9.2 mph - N/A   Clear
8:34 AM 67.1 °F - 61.5 °F 82% 29.89 in 10.0 mi South 8.1 mph - N/A   Clear
8:54 AM 68.9 °F - 62.2 °F 79% 29.89 in 10.0 mi South 6.9 mph - N/A   Clear
9:14 AM 70.3 °F - 62.6 °F 76% 29.90 in 10.0 mi SSW 5.8 mph - N/A   Clear
9:34 AM 72.0 °F - 63.0 °F 73% 29.89 in 10.0 mi South 5.8 mph - N/A   Clear
9:54 AM 73.4 °F - 63.1 °F 70% 29.88 in 10.0 mi South 5.8 mph - N/A   Clear
10:14 AM 74.8 °F - 63.9 °F 69% 29.87 in 10.0 mi South 6.9 mph - N/A   Clear
10:34 AM 75.4 °F - 62.8 °F 65% 29.87 in 10.0 mi SSW 8.1 mph - N/A   Clear
10:54 AM 75.9 °F - 63.3 °F 65% 29.87 in 10.0 mi SSW 5.8 mph - N/A   Clear
11:14 AM 76.8 °F - 63.1 °F 63% 29.87 in 10.0 mi South 6.9 mph - N/A   Clear
11:34 AM 77.0 °F - 62.4 °F 61% 29.87 in 10.0 mi SSW 5.8 mph - N/A   Clear
11:54 AM 78.1 °F - 63.0 °F 60% 29.86 in 10.0 mi SW 9.2 mph - N/A   Clear
12:14 PM 77.5 °F - 63.0 °F 61% 29.85 in 10.0 mi SSW 9.2 mph - N/A   Clear
12:34 PM 79.2 °F - 63.5 °F 59% 29.85 in 10.0 mi SSW 9.2 mph - N/A   Clear
12:54 PM 79.0 °F - 62.8 °F 57% 29.84 in 10.0 mi South 13.8 mph - N/A   Clear
1:14 PM 80.6 °F 82.0 °F 63.7 °F 56% 29.84 in 10.0 mi SSW 12.7 mph - N/A   Clear
1:34 PM 80.8 °F 82.2 °F 63.9 °F 56% 29.82 in 10.0 mi South 12.7 mph - N/A   Clear
1:54 PM 81.3 °F 83.0 °F 64.8 °F 57% 29.83 in 10.0 mi SW 6.9 mph 17.3 mph N/A   Scattered Clouds
2:14 PM 78.3 °F - 66.7 °F 68% 29.82 in 10.0 mi WNW 12.7 mph - N/A   Scattered Clouds
2:34 PM 79.2 °F - 66.9 °F 66% 29.81 in 10.0 mi West 11.5 mph - N/A   Clear
2:54 PM 79.0 °F - 67.3 °F 67% 29.80 in 10.0 mi West 12.7 mph - N/A   Clear
3:14 PM 78.3 °F - 66.4 °F 67% 29.80 in 10.0 mi West 13.8 mph - N/A   Clear
3:34 PM 79.2 °F - 67.1 °F 66% 29.79 in 10.0 mi West 11.5 mph - N/A   Clear
3:54 PM 78.6 °F - 68.0 °F 70% 29.78 in 10.0 mi West 11.5 mph - N/A   Clear
4:14 PM 78.3 °F - 68.5 °F 72% 29.78 in 10.0 mi West 13.8 mph - N/A   Clear
4:34 PM 79.0 °F - 69.1 °F 72% 29.77 in 10.0 mi West 12.7 mph - N/A   Clear
4:54 PM 79.0 °F - 68.9 °F 71% 29.77 in 10.0 mi West 12.7 mph - N/A   Clear
5:14 PM 78.8 °F - 69.1 °F 72% 29.76 in 10.0 mi West 11.5 mph - N/A   Clear
5:35 PM 78.3 °F - 68.9 °F 73% 29.74 in 10.0 mi West 5.8 mph - N/A   Clear
5:54 PM 78.6 °F - 69.3 °F 73% 29.74 in 10.0 mi West 5.8 mph - N/A   Clear
6:14 PM 77.9 °F - 69.4 °F 75% 29.74 in 10.0 mi NW 4.6 mph - N/A   Clear
6:34 PM 77.0 °F - 69.3 °F 77% 29.74 in 10.0 mi West 6.9 mph - N/A   Scattered Clouds
6:54 PM 76.1 °F - 68.7 °F 78% 29.73 in 10.0 mi West 8.1 mph - N/A   Scattered Clouds
7:14 PM 76.6 °F - 69.1 °F 77% 29.72 in 10.0 mi WSW 5.8 mph - N/A   Scattered Clouds
7:34 PM 75.7 °F - 68.7 °F 79% 29.72 in 10.0 mi SSW 3.5 mph - N/A   Scattered Clouds
7:54 PM 75.9 °F - 68.4 °F 77% 29.71 in 10.0 mi SSW 3.5 mph - N/A   Scattered Clouds
8:14 PM 76.1 °F - 68.0 °F 76% 29.71 in 10.0 mi SW 3.5 mph - N/A   Scattered Clouds
8:34 PM 75.6 °F - 68.0 °F 77% 29.71 in 10.0 mi Calm Calm - N/A   Mostly Cloudy
8:54 PM 75.4 °F - 68.0 °F 78% 29.71 in 10.0 mi Calm Calm - N/A   Mostly Cloudy
9:14 PM 75.4 °F - 66.4 °F 73% 29.71 in 10.0 mi SW 4.6 mph - N/A   Mostly Cloudy
9:34 PM 75.7 °F - 65.3 °F 70% 29.70 in 10.0 mi SSW 5.8 mph - N/A   Mostly Cloudy
9:54 PM 76.1 °F - 64.6 °F 67% 29.69 in 10.0 mi SSW 4.6 mph - N/A   Scattered Clouds
10:15 PM 76.3 °F - 64.8 °F 67% 29.70 in 10.0 mi SSW 9.2 mph - N/A   Clear
10:34 PM 76.8 °F - 64.8 °F 66% 29.70 in 10.0 mi SSW 10.4 mph - N/A   Clear
10:54 PM 76.5 °F - 64.6 °F 67% 29.69 in 10.0 mi SSW 10.4 mph - N/A   Scattered Clouds
11:14 PM 77.0 °F - 64.4 °F 65% 29.70 in 10.0 mi SSW 9.2 mph 18.4 mph N/A   Scattered Clouds
11:34 PM 77.0 °F - 64.0 °F 64% 29.69 in 10.0 mi SSW 12.7 mph 18.4 mph N/A   Mostly Cloudy
11:54 PM 76.6 °F - 63.5 °F 64% 29.69 in 10.0 mi SSW 12.7 mph - N/A   Mostly Cloudy